DLH7LA EDDL-EDDM

Flight info

Callsign DLH7LA
Flight time 0h 54m
Altitude 35000
Route DODEN7Z DODEN Y853 BOMBI T104 HAREM/N0375F270 T104 ROKIL ROKIL1B
Aircraft A21N/M-SDE2E3FGIJ1LORWXYZ/HB1

Departure

Time 2026-05-05 19:00
Airport Düsseldorf Airport (EDDL)

Arrival

Time 2026-05-05 19:54
Airport Munich Airport (EDDM)
Time Latitude Longitude Altitude Speed Heading
2026-05-05 18:15 51.28029 6.76525 134 ft 0 kts 89°
2026-05-05 18:42 51.28030 6.76494 134 ft 4 kts 109°
2026-05-05 18:42 51.28044 6.76464 134 ft 4 kts 150°
2026-05-05 18:42 51.28067 6.76446 134 ft 3 kts 150°
2026-05-05 18:43 51.28084 6.76428 134 ft 4 kts 146°
2026-05-05 18:43 51.28106 6.76404 133 ft 4 kts 142°
2026-05-05 18:43 51.28125 6.76377 133 ft 4 kts 131°
2026-05-05 18:43 51.28139 6.76345 132 ft 4 kts 112°
2026-05-05 18:44 51.28146 6.76304 133 ft 4 kts 95°
2026-05-05 18:44 51.28145 6.76264 133 ft 4 kts 75°
2026-05-05 18:44 51.28135 6.76225 133 ft 4 kts 58°
2026-05-05 18:44 51.28126 6.76204 133 ft 0 kts 53°
2026-05-05 18:48 51.28128 6.76209 133 ft 2 kts 53°
2026-05-05 18:49 51.28145 6.76243 133 ft 5 kts 49°
2026-05-05 18:49 51.28183 6.76259 133 ft 7 kts 339°
2026-05-05 18:49 51.28197 6.76170 134 ft 11 kts 243°
2026-05-05 18:49 51.28147 6.76059 135 ft 14 kts 232°
2026-05-05 18:50 51.28084 6.75928 135 ft 16 kts 232°
2026-05-05 18:50 51.28014 6.75781 135 ft 12 kts 233°
2026-05-05 18:50 51.27960 6.75666 135 ft 13 kts 233°
2026-05-05 18:50 51.27915 6.75571 134 ft 9 kts 232°
2026-05-05 18:51 51.27883 6.75506 133 ft 7 kts 233°
2026-05-05 18:51 51.27871 6.75480 133 ft 0 kts 233°
2026-05-05 18:55 51.27860 6.75458 132 ft 5 kts 233°
2026-05-05 18:55 51.27836 6.75402 131 ft 7 kts 247°
2026-05-05 18:56 51.27842 6.75357 130 ft 0 kts 317°
2026-05-05 18:57 51.27847 6.75350 130 ft 2 kts 317°
2026-05-05 18:58 51.27867 6.75327 134 ft 5 kts 332°
2026-05-05 18:58 51.27903 6.75298 129 ft 7 kts 333°
2026-05-05 18:58 51.27953 6.75256 127 ft 9 kts 333°
2026-05-05 18:58 51.28011 6.75301 126 ft 8 kts 56°
2026-05-05 18:59 51.28017 6.75314 128 ft 0 kts 54°
2026-05-05 18:59 51.28153 6.75606 133 ft 73 kts 50°
2026-05-05 18:59 51.28627 6.76597 134 ft 148 kts 52°
2026-05-05 19:00 51.29290 6.78035 588 ft 162 kts 52°
2026-05-05 19:00 51.29967 6.79478 1380 ft 163 kts 51°
2026-05-05 19:00 51.30705 6.81013 1855 ft 185 kts 51°
2026-05-05 19:00 51.31512 6.82723 2479 ft 200 kts 52°
2026-05-05 19:01 51.32388 6.84585 3046 ft 223 kts 52°
2026-05-05 19:01 51.33370 6.86673 3607 ft 246 kts 52°
2026-05-05 19:01 51.34392 6.88955 4418 ft 257 kts 55°
2026-05-05 19:01 51.35167 6.91556 5312 ft 264 kts 76°
2026-05-05 19:02 51.35212 6.94514 6203 ft 271 kts 97°
2026-05-05 19:02 51.34907 6.97425 7077 ft 276 kts 99°
2026-05-05 19:02 51.34555 7.00566 7969 ft 282 kts 99°
2026-05-05 19:02 51.34219 7.03682 8817 ft 287 kts 99°
2026-05-05 19:03 51.33884 7.06858 9656 ft 292 kts 99°
2026-05-05 19:03 51.33548 7.10110 10327 ft 305 kts 100°
2026-05-05 19:03 51.33199 7.13509 10799 ft 322 kts 100°
2026-05-05 19:03 51.32640 7.17019 11435 ft 330 kts 114°
2026-05-05 19:04 51.31359 7.20102 12222 ft 330 kts 134°
2026-05-05 19:04 51.29728 7.22705 13053 ft 333 kts 138°
2026-05-05 19:04 51.28619 7.24404 13588 ft 335 kts 138°
2026-05-05 19:04 51.26940 7.26993 14379 ft 338 kts 137°
2026-05-05 19:05 51.24691 7.30502 15399 ft 343 kts 137°
2026-05-05 19:05 51.23540 7.32308 15919 ft 345 kts 137°
2026-05-05 19:05 51.21258 7.35891 16916 ft 349 kts 137°
2026-05-05 19:05 51.19523 7.38618 17640 ft 352 kts 137°
2026-05-05 19:06 51.17769 7.41373 18345 ft 356 kts 137°
2026-05-05 19:06 51.16002 7.44146 19027 ft 359 kts 137°
2026-05-05 19:06 51.14790 7.46039 19483 ft 361 kts 138°
2026-05-05 19:06 51.12977 7.48814 20131 ft 364 kts 138°
2026-05-05 19:07 51.11134 7.51616 20765 ft 367 kts 138°
2026-05-05 19:07 51.09282 7.54433 21379 ft 370 kts 138°
2026-05-05 19:07 51.07422 7.57262 21989 ft 372 kts 138°
2026-05-05 19:07 51.05539 7.60133 22559 ft 376 kts 138°
2026-05-05 19:08 51.03646 7.63020 23131 ft 378 kts 138°
2026-05-05 19:08 51.01739 7.65926 23678 ft 381 kts 138°
2026-05-05 19:08 50.99822 7.68841 24217 ft 383 kts 138°
2026-05-05 19:08 50.97881 7.71775 24667 ft 385 kts 139°
2026-05-05 19:09 50.95844 7.74421 24811 ft 384 kts 147°
2026-05-05 19:09 50.93526 7.76781 24835 ft 399 kts 149°
2026-05-05 19:09 50.91149 7.79110 24835 ft 415 kts 149°
2026-05-05 19:09 50.88616 7.81586 24887 ft 428 kts 149°
2026-05-05 19:10 50.86084 7.84069 25513 ft 426 kts 149°
2026-05-05 19:10 50.83589 7.86521 26282 ft 420 kts 149°
2026-05-05 19:10 50.81130 7.88931 27060 ft 413 kts 149°
2026-05-05 19:10 50.78699 7.91312 27831 ft 406 kts 149°
2026-05-05 19:11 50.76318 7.93642 28574 ft 400 kts 149°
2026-05-05 19:11 50.73959 7.95945 29168 ft 397 kts 149°
2026-05-05 19:11 50.71609 7.98237 29608 ft 398 kts 149°
2026-05-05 19:11 50.69254 8.00533 30014 ft 398 kts 149°
2026-05-05 19:12 50.66886 8.02821 30384 ft 400 kts 149°
2026-05-05 19:12 50.64594 8.05318 30712 ft 402 kts 141°
2026-05-05 19:12 50.62542 8.08323 31059 ft 404 kts 137°
2026-05-05 19:12 50.60535 8.11430 31373 ft 406 kts 137°
2026-05-05 19:13 50.58515 8.14542 31724 ft 405 kts 137°
2026-05-05 19:13 50.56495 8.17623 32116 ft 404 kts 137°
2026-05-05 19:13 50.54502 8.20641 32513 ft 403 kts 137°
2026-05-05 19:13 50.52483 8.23692 32886 ft 401 kts 138°
2026-05-05 19:14 50.50477 8.26720 33240 ft 400 kts 138°
2026-05-05 19:14 50.48473 8.29739 33573 ft 399 kts 138°
2026-05-05 19:14 50.46469 8.32756 33907 ft 398 kts 138°
2026-05-05 19:14 50.44474 8.35748 34233 ft 397 kts 138°
2026-05-05 19:15 50.42480 8.38742 34494 ft 397 kts 138°
2026-05-05 19:15 50.40474 8.41750 34714 ft 398 kts 138°
2026-05-05 19:15 50.38466 8.44755 34831 ft 400 kts 138°
2026-05-05 19:15 50.36452 8.47764 34837 ft 400 kts 138°
2026-05-05 19:16 50.32423 8.53781 34812 ft 400 kts 139°
2026-05-05 19:16 50.28398 8.59775 34808 ft 400 kts 138°
2026-05-05 19:17 50.24346 8.65788 34798 ft 401 kts 139°
2026-05-05 19:17 50.20298 8.71788 34793 ft 401 kts 139°
2026-05-05 19:18 50.16242 8.77787 34791 ft 401 kts 139°
2026-05-05 19:18 50.12179 8.83769 34791 ft 402 kts 139°
2026-05-05 19:19 50.08107 8.89755 34791 ft 402 kts 139°
2026-05-05 19:19 50.04036 8.95727 34792 ft 402 kts 139°
2026-05-05 19:20 49.99960 9.01695 34790 ft 402 kts 139°
2026-05-05 19:20 49.95879 9.07654 34791 ft 403 kts 139°
2026-05-05 19:21 49.91784 9.13617 34791 ft 404 kts 139°
2026-05-05 19:21 49.87676 9.19586 34798 ft 405 kts 139°
2026-05-05 19:22 49.83562 9.25543 34801 ft 405 kts 139°
2026-05-05 19:22 49.79451 9.31488 34797 ft 405 kts 139°
2026-05-05 19:23 49.75319 9.37438 34809 ft 404 kts 139°
2026-05-05 19:23 49.71199 9.43361 34800 ft 404 kts 139°
2026-05-05 19:24 49.67083 9.49277 34825 ft 404 kts 139°
2026-05-05 19:24 49.62958 9.55186 34808 ft 404 kts 139°
2026-05-05 19:25 49.58830 9.61075 34806 ft 405 kts 139°
2026-05-05 19:25 49.54694 9.66968 34814 ft 405 kts 139°
2026-05-05 19:26 49.50556 9.72847 34814 ft 405 kts 139°
2026-05-05 19:26 49.46434 9.78695 34424 ft 403 kts 139°
2026-05-05 19:27 49.44377 9.81600 34006 ft 401 kts 139°
2026-05-05 19:27 49.42326 9.84501 33445 ft 399 kts 139°
2026-05-05 19:27 49.40288 9.87381 32859 ft 398 kts 139°
2026-05-05 19:27 49.38255 9.90251 32265 ft 396 kts 139°
2026-05-05 19:28 49.36227 9.93106 31642 ft 396 kts 139°
2026-05-05 19:28 49.34196 9.95965 30992 ft 396 kts 139°
2026-05-05 19:28 49.32162 9.98823 30326 ft 396 kts 139°
2026-05-05 19:28 49.30136 10.01669 29654 ft 397 kts 139°
2026-05-05 19:29 49.28094 10.04529 28973 ft 397 kts 139°
2026-05-05 19:29 49.26061 10.07376 28322 ft 395 kts 139°
2026-05-05 19:29 49.24036 10.10205 27730 ft 393 kts 139°
2026-05-05 19:29 49.22028 10.13014 27148 ft 390 kts 139°
2026-05-05 19:30 49.20031 10.15804 26542 ft 387 kts 139°
2026-05-05 19:30 49.18048 10.18571 25933 ft 384 kts 139°
2026-05-05 19:30 49.16075 10.21317 25338 ft 386 kts 139°
2026-05-05 19:30 49.14056 10.24200 24946 ft 404 kts 136°
2026-05-05 19:31 49.12104 10.27302 24823 ft 406 kts 135°
2026-05-05 19:31 49.10164 10.30432 24802 ft 406 kts 135°
2026-05-05 19:31 49.08225 10.33560 24808 ft 406 kts 135°
2026-05-05 19:31 49.06287 10.36679 24820 ft 406 kts 135°
2026-05-05 19:32 49.04340 10.39808 24826 ft 406 kts 135°
2026-05-05 19:32 49.02392 10.42932 24829 ft 407 kts 135°
2026-05-05 19:32 49.00446 10.46051 24827 ft 407 kts 135°
2026-05-05 19:32 48.98493 10.49165 24829 ft 407 kts 135°
2026-05-05 19:33 48.96538 10.52279 24831 ft 407 kts 135°
2026-05-05 19:33 48.94584 10.55392 24686 ft 406 kts 135°
2026-05-05 19:33 48.92653 10.58470 24115 ft 400 kts 135°
2026-05-05 19:33 48.90735 10.61520 23457 ft 396 kts 135°
2026-05-05 19:34 48.88839 10.64530 22803 ft 393 kts 135°
2026-05-05 19:34 48.86962 10.67509 22167 ft 389 kts 135°
2026-05-05 19:34 48.85101 10.70459 21531 ft 385 kts 135°
2026-05-05 19:35 48.81432 10.76261 20308 ft 376 kts 136°
2026-05-05 19:35 48.79635 10.79096 19735 ft 370 kts 136°
2026-05-05 19:35 48.77859 10.81884 19206 ft 365 kts 136°
2026-05-05 19:35 48.76107 10.84631 18677 ft 361 kts 136°
2026-05-05 19:36 48.74372 10.87349 18179 ft 357 kts 136°
2026-05-05 19:36 48.72656 10.90033 17713 ft 352 kts 136°
2026-05-05 19:36 48.70962 10.92685 17245 ft 349 kts 136°
2026-05-05 19:36 48.69281 10.95313 16756 ft 346 kts 136°
2026-05-05 19:37 48.67560 10.97994 16395 ft 365 kts 137°
2026-05-05 19:37 48.65797 11.00733 16111 ft 363 kts 137°
2026-05-05 19:37 48.64058 11.03431 15853 ft 361 kts 137°
2026-05-05 19:37 48.62309 11.06146 15557 ft 360 kts 137°
2026-05-05 19:38 48.60575 11.08838 15149 ft 355 kts 137°
2026-05-05 19:38 48.58863 11.11490 14685 ft 351 kts 137°
2026-05-05 19:38 48.57034 11.13889 14197 ft 346 kts 147°
2026-05-05 19:38 48.55061 11.15927 13713 ft 343 kts 149°
2026-05-05 19:39 48.53082 11.17916 13238 ft 340 kts 149°
2026-05-05 19:39 48.51135 11.19975 12900 ft 342 kts 144°
2026-05-05 19:39 48.49343 11.22317 12812 ft 343 kts 141°
2026-05-05 19:39 48.47565 11.24721 12811 ft 344 kts 141°
2026-05-05 19:40 48.45784 11.27136 12820 ft 344 kts 141°
2026-05-05 19:40 48.44007 11.29555 12825 ft 345 kts 140°
2026-05-05 19:40 48.42494 11.32366 12814 ft 350 kts 122°
2026-05-05 19:40 48.41697 11.35850 12814 ft 357 kts 101°
2026-05-05 19:41 48.41723 11.39611 12826 ft 362 kts 85°
2026-05-05 19:41 48.42072 11.43352 12828 ft 362 kts 84°
2026-05-05 19:41 48.42429 11.47106 12824 ft 362 kts 85°
2026-05-05 19:41 48.42760 11.50858 12821 ft 361 kts 85°
2026-05-05 19:42 48.43071 11.54589 12682 ft 355 kts 85°
2026-05-05 19:42 48.43366 11.58257 11976 ft 352 kts 86°
2026-05-05 19:42 48.43656 11.61920 11228 ft 351 kts 86°
2026-05-05 19:42 48.43940 11.65546 10680 ft 344 kts 85°
2026-05-05 19:43 48.44213 11.69048 10397 ft 329 kts 86°
2026-05-05 19:43 48.44471 11.72391 10171 ft 314 kts 86°
2026-05-05 19:43 48.44723 11.75605 9799 ft 305 kts 85°
2026-05-05 19:43 48.44985 11.78764 9277 ft 303 kts 85°
2026-05-05 19:44 48.45240 11.81915 8712 ft 304 kts 85°
2026-05-05 19:44 48.45488 11.85065 8254 ft 300 kts 85°
2026-05-05 19:44 48.45725 11.88127 8001 ft 288 kts 85°
2026-05-05 19:44 48.45943 11.91083 7663 ft 281 kts 85°
2026-05-05 19:45 48.46150 11.94000 7223 ft 279 kts 85°
2026-05-05 19:45 48.46345 11.96909 6755 ft 279 kts 85°
2026-05-05 19:45 48.46526 11.99809 6296 ft 278 kts 85°
2026-05-05 19:45 48.46695 12.02715 5833 ft 278 kts 85°
2026-05-05 19:46 48.46854 12.05611 5396 ft 276 kts 85°
2026-05-05 19:46 48.47004 12.08440 5167 ft 265 kts 85°
2026-05-05 19:46 48.47146 12.11146 4998 ft 253 kts 85°
2026-05-05 19:46 48.47193 12.13762 4952 ft 250 kts 99°
2026-05-05 19:47 48.46573 12.16132 4962 ft 246 kts 129°
2026-05-05 19:47 48.45308 12.17782 4984 ft 239 kts 159°
2026-05-05 19:47 48.43741 12.18498 5005 ft 235 kts 173°
2026-05-05 19:47 48.42140 12.18950 5008 ft 233 kts 179°
2026-05-05 19:48 48.40682 12.18549 4976 ft 199 kts 218°
2026-05-05 19:48 48.39827 12.17031 4988 ft 191 kts 248°
2026-05-05 19:48 48.39406 12.15140 4998 ft 191 kts 258°
2026-05-05 19:48 48.39165 12.13185 5001 ft 189 kts 263°
2026-05-05 19:49 48.38982 12.11228 5005 ft 189 kts 261°
2026-05-05 19:49 48.38837 12.09909 4961 ft 186 kts 263°
2026-05-05 19:49 48.38643 12.07529 4784 ft 164 kts 264°
2026-05-05 19:49 48.38515 12.05873 4571 ft 155 kts 264°
2026-05-05 19:50 48.38396 12.04328 4341 ft 145 kts 265°
2026-05-05 19:50 48.38275 12.02748 4148 ft 155 kts 264°
2026-05-05 19:50 48.38193 12.01684 4003 ft 155 kts 265°
2026-05-05 19:50 48.38067 12.00049 3806 ft 155 kts 265°
2026-05-05 19:51 48.37945 11.98456 3601 ft 156 kts 265°
2026-05-05 19:51 48.37821 11.96832 3392 ft 156 kts 265°
2026-05-05 19:51 48.37697 11.95206 3183 ft 157 kts 265°
2026-05-05 19:51 48.37573 11.93589 2992 ft 151 kts 265°
2026-05-05 19:52 48.37457 11.92059 2791 ft 146 kts 263°
2026-05-05 19:52 48.37342 11.90559 2600 ft 138 kts 263°
2026-05-05 19:52 48.37229 11.89126 2413 ft 138 kts 264°
2026-05-05 19:52 48.37131 11.87687 2263 ft 138 kts 264°
2026-05-05 19:53 48.37009 11.86261 2099 ft 137 kts 263°
2026-05-05 19:53 48.36902 11.84838 1905 ft 137 kts 264°
2026-05-05 19:53 48.36788 11.83417 1729 ft 136 kts 264°
2026-05-05 19:53 48.36677 11.82005 1553 ft 136 kts 264°
2026-05-05 19:54 48.36579 11.80665 1483 ft 100 kts 264°
2026-05-05 19:54 48.36522 11.79986 1478 ft 39 kts 263°
2026-05-05 19:54 48.36462 11.79734 1481 ft 22 kts 234°
2026-05-05 19:54 48.36375 11.79552 1485 ft 18 kts 233°
2026-05-05 19:55 48.36295 11.79390 1489 ft 20 kts 233°
2026-05-05 19:55 48.36234 11.79299 1480 ft 9 kts 192°
2026-05-05 19:55 48.36163 11.79305 1477 ft 12 kts 173°
2026-05-05 19:55 48.36076 11.79320 1480 ft 11 kts 173°
2026-05-05 19:56 48.36021 11.79329 1486 ft 5 kts 173°
2026-05-05 19:56 48.35973 11.79339 1484 ft 8 kts 173°
2026-05-05 19:56 48.35910 11.79368 1480 ft 11 kts 156°
2026-05-05 19:56 48.35833 11.79389 1488 ft 8 kts 174°
2026-05-05 19:57 48.35786 11.79397 1477 ft 8 kts 173°
2026-05-05 19:57 48.35724 11.79408 1477 ft 10 kts 173°
2026-05-05 19:57 48.35644 11.79422 1480 ft 13 kts 173°
2026-05-05 19:57 48.35547 11.79439 1488 ft 15 kts 173°
2026-05-05 19:58 48.35439 11.79458 1487 ft 14 kts 173°
2026-05-05 19:58 48.35374 11.79462 1479 ft 7 kts 210°
2026-05-05 19:58 48.35358 11.79380 1477 ft 8 kts 263°
2026-05-05 19:58 48.35354 11.79328 1485 ft 2 kts 264°
2026-05-05 19:59 48.35354 11.79327 1487 ft 0 kts 264°